Finales Départementales des Jeunes - J2 - PAS-DE-CALAIS

Compétition Départementale

LENS

Le Dimanche 03 Juin 2012

Bassin de 50m

100 Brasse Dames

Séries

Nom Année Temps Pts Club Pays
1 DUHAMEL Cyrielle 2000 1:23:50 995 SN LENS FRA
2 REMY Adeline 2000 1:24:30 977 STADE BÉTHUNE PÉLICAN CLUB FRA
3 BATELLI Maeva 2000 1:31:06 832 SN HARNES FRA
4 HAMILLE Lena 2001 1:33:80 777 US MONTREUIL-SUR-MER FRA
5 RENAULT Lea 1999 1:34:47 764 CALAIS NATATION FRA
6 MARTIN Camille 1999 1:34:49 763 SN LENS FRA
7 GENET Valentine 1999 1:34:74 758 RACING CLUB ARRAS FRA
8 BERRABAH Myriem 2001 1:35:48 744 CN HÉNIN-BEAUMONT FRA
9 VERMANDERE Mathilde 1999 1:35:61 741 SN HARNES FRA
10 PROUST Zélie 2000 1:36:31 728 USO BRUAY-LA-BUISSIERE FRA
11 HANQUIEZ Jennifer 1999 1:37:01 714 SC BOULOGNE-SUR-MER FRA
12 BONIFACE Chloe 1999 1:37:38 707 AUCHEL NATATION FRA
13 SOMMERFELD Margot 1999 1:37:47 706 STADE BÉTHUNE PÉLICAN CLUB FRA
14 DELANNOY Agathe 1999 1:37:69 701 DAUPHINS ST-OMER FRA
15 THERY Celine 2000 1:38:15 693 ASL CANETONS LILLERS FRA
16 NOTEBAERT Elsa 2001 1:38:60 684 SN HARNES FRA
17 ROCHE-MATHON Leah 2001 1:38:89 679 RACING CLUB ARRAS FRA
18 DEFRETIN Blandine 1999 1:39:07 676 STADE BÉTHUNE PÉLICAN CLUB FRA
19 PILLE Emma 2000 1:39:10 675 RACING CLUB ARRAS FRA
20 LETURGIE Marie 1999 1:39:24 672 STADE BÉTHUNE PÉLICAN CLUB FRA
21 BOCQUET Mathilde 1999 1:39:30 671 SN LENS FRA
22 PASQUA Elisa 1999 1:39:88 661 STADE BÉTHUNE PÉLICAN CLUB FRA
23 VANHOYE Célia 2000 1:40:08 657 STADE BÉTHUNE PÉLICAN CLUB FRA
24 NOSKOWIAK Mathilde 2001 1:40:18 655 US MONTREUIL-SUR-MER FRA
25 NOTEBAERT Pauline 1999 1:40:23 654 SN HARNES FRA
26 SAILLY-VASSEUR Blanche 1999 1:42:48 614 SC BOULOGNE-SUR-MER FRA
27 LEGRAND Oceane 1999 1:42:78 609 USO BRUAY-LA-BUISSIERE FRA
28 CABO Amelie 2001 1:43:00 605 RACING CLUB ARRAS FRA
29 CASTELAN Leana 2001 1:43:03 604 BERCK NATATION FRA
30 MARCINIAK Marie 2001 1:44:30 582 SN LENS FRA
31 KOUADIO PATINIER Lucie 2000 1:44:38 581 BERCK NATATION FRA
32 KNOP Jeanne 2000 1:44:50 579 BERCK NATATION FRA
33 CADIOU Chloe 2000 1:44:83 573 STADE BÉTHUNE PÉLICAN CLUB FRA
34 WACKENS Capucine 2001 1:45:99 553 SN LENS FRA
35 FICHAUX Ambre 2001 1:46:14 551 RACING CLUB ARRAS FRA
36 COULPIER Chana 2001 1:46:36 547 BERCK NATATION FRA
37 DELATTRE Garance 2002 1:46:45 546 DAUPHINS ST-OMER FRA
38 LEFEBVRE Louise 2001 1:46:55 544 ENC ACHICOURT FRA
39 AVET Lilou 2000 1:46:83 540 DAUPHINS ST-OMER FRA
40 COLOMBEL Marie 2000 1:47:34 531 RACING CLUB ARRAS FRA
41 DEFRETIN Pauline 1999 1:47:34 531 STADE BÉTHUNE PÉLICAN CLUB FRA
42 LANCEZ Emma 2001 1:48:27 516 RACING CLUB ARRAS FRA
43 GRAS Blandine 2001 1:48:52 512 CN DIVION FRA
44 CAPELLE Cassandre 1999 1:48:66 510 ENC ACHICOURT FRA
45 TRENEL Maurine 2001 1:48:74 508 RACING CLUB ARRAS FRA
46 JOLY Jennifer 2002 1:49:63 494 CN FREVENT FRA
47 MAXIME Juliette 1999 1:49:70 493 SC BOULOGNE-SUR-MER FRA
48 VERHAMME Mallaury 2002 1:50:04 488 US MONTREUIL-SUR-MER FRA
49 DELHAY Louise 2001 1:50:11 487 SN LENS FRA
50 WAREMBOURG Eulalie 2002 1:50:40 482 RACING CLUB ARRAS FRA
51 ROUSSEL Marie 2002 1:50:42 482 ENC ACHICOURT FRA
52 LEURS Chloe 2001 1:50:51 480 SN LENS FRA
53 CATEZ Oceane 2001 1:50:89 474 STADE BÉTHUNE PÉLICAN CLUB FRA
54 CARNEZ Oceane 2002 1:51:00 473 CN DIVION FRA
55 HENOCQ Charlotte 2001 1:51:23 469 RACING CLUB ARRAS FRA
56 RIBEIRO Léa 2001 1:51:67 462 DAUPHINS ST-OMER FRA
57 ZAJAC Margot 2001 1:52:08 456 STADE BÉTHUNE PÉLICAN CLUB FRA
58 COUPIN Estelle 2001 1:52:15 455 CALAIS NATATION FRA
59 DELPLANQUE Claire 2002 1:54:45 421 CN HÉNIN-BEAUMONT FRA
60 MORTIER Philippine 2002 1:55:21 410 BERCK NATATION FRA
61 TROLLE Louise 2001 1:55:45 406 US MONTREUIL-SUR-MER FRA
62 CLAY Margot 2000 1:56:20 396 ENC ACHICOURT FRA
63 HERBAUX-VERMEULEN Anais 2002 1:58:71 361 ENC ACHICOURT FRA
64 GIVERN Maëva 2002 1:59:78 346 BERCK NATATION FRA
65 DEBRIS Anaëlle 2002 2:00:86 332 BERCK NATATION FRA
66 PIJANOWSKI Alexia 2002 2:01:54 323 RACING CLUB ARRAS FRA
67 DEBOUVERIE Elora 2002 2:01:88 319 STADE BÉTHUNE PÉLICAN CLUB FRA
68 QUEVA Camille 2002 2:02:48 312 RACING CLUB ARRAS FRA
69 CREPIN Léa 2002 2:02:70 309 BERCK NATATION FRA
70 QUEVAT Elise 2002 2:04:09 292 ASL CANETONS LILLERS FRA
71 DEWYNTER Solene 2001 2:04:13 291 DAUPHINS ST-OMER FRA
72 VIDELAINE Manuella 2002 2:06:48 263 ASL CANETONS LILLERS FRA
73 GHYS Chloé 2002 2:07:16 255 TRITONS LUMBRES FRA
74 RÉMY Capucine 2002 2:13:22 191 CN FREVENT FRA
75 SABRE Lucie 2002 2:13:46 189 SN LENS FRA
76 DANEL Chloe 2002 2:19:47 134 SN HARNES FRA
77 ARZUL Agathe 2002 2:20:96 122 RACING CLUB ARRAS FRA
RACING CLUB ARRAS